Location: La Brionne
(46.1728°N, 1.7849°E)
Time: 23:22:06
(UTC+00:00)

Cosmos 2369 Rocket - Visible Passes

Search period start: 23 October 2021 00:00
Search period end: 02 November 2021 00:00
Orbit: 830 x 851 km, 71.0° (Epoch: 23 October)

Date Brightness Start Highest point End Pass type
(mag) Time Alt. Az. Time Alt. Az. Time Alt. Az.
26 Oct 4.8 20:23:37 10° N 20:23:45 10° N 20:23:45 10° N visible
27 Oct 4.7 20:08:17 10° N 20:08:39 11° N 20:08:39 11° N visible
28 Oct 4.6 19:52:58 10° N 19:53:34 12° N 19:53:34 12° N visible
29 Oct 4.4 19:37:39 10° N 19:38:31 13° N 19:38:31 13° N visible
30 Oct 4.3 19:22:20 10° N 19:23:28 13° NNE 19:23:28 13° NNE visible
31 Oct 4.2 19:07:01 10° N 19:08:28 14° NNE 19:08:28 14° NNE visible
31 Oct 4.9 20:49:54 10° NNW 20:50:14 12° NNW 20:50:14 12° NNW visible
01 Nov 4.1 18:51:43 10° N 18:53:28 14° NNE 18:53:28 14° NNE visible
01 Nov 4.7 20:34:31 10° NNW 20:35:15 14° NNW 20:35:15 14° NNW visible
